• în România
  • Lista ţărilor
  • Pe 7 zile
  • Temperatura apei
  • Hartă satelitară
  • Meteo pe hartă
  • Widget-uri
  • user-avatar
    Intrare

    Meteo pe oră la Satif

    Astăzi, 26 Martie, Duminică

    Timp Temperatura Precipitaţii Vânt Presiune Umiditate
    00:00 +6°C° 0 mm 1 m/s 673 mmHg 75%
    01:00 +7°C° 0 mm 1 m/s 672 mmHg 74%
    02:00 +7°C° 0 mm 1 m/s 672 mmHg 73%
    03:00 +7°C° 0 mm 1 m/s 672 mmHg 72%
    04:00 +7°C° 0 mm 1 m/s 672 mmHg 73%
    05:00 +6°C° 0 mm 1 m/s 671 mmHg 74%
    06:00 +6°C° 0 mm 1 m/s 671 mmHg 75%
    07:00 +10°C° 0 mm 1 m/s 672 mmHg 59%
    08:00 +13°C° 0 mm 1 m/s 673 mmHg 43%
    09:00 +18°C° 0 mm 1 m/s 674 mmHg 27%
    10:00 +19°C° 0 mm 1 m/s 674 mmHg 23%
    11:00 +20°C° 0 mm 2 m/s 674 mmHg 20%
    12:00 +21°C° 0 mm 2 m/s 674 mmHg 17%
    13:00 +21°C° 0 mm 2 m/s 674 mmHg 17%
    14:00 +21°C° 0 mm 2 m/s 674 mmHg 18%
    15:00 +20°C° 0 mm 2 m/s 673 mmHg 19%
    16:00 +17°C° 0 mm 2 m/s 672 mmHg 30%
    17:00 +14°C° 0 mm 2 m/s 671 mmHg 40%
    18:00 +10°C° 0 mm 1 m/s 670 mmHg 51%
    19:00 +9°C° 0 mm 1 m/s 670 mmHg 53%
    20:00 +9°C° 0 mm 1 m/s 671 mmHg 54%
    21:00 +8°C° 0 mm 1 m/s 671 mmHg 55%
    22:00 +8°C° 0 mm 1 m/s 671 mmHg 57%
    23:00 +8°C° 0 mm 1 m/s 671 mmHg 58%

    Mâine, 27 Martie, Luni

    Timp Temperatura Precipitaţii Vânt Presiune Umiditate
    00:00 +7°C° 0 mm 2 m/s 671 mmHg 59%
    01:00 +7°C° 0 mm 2 m/s 671 mmHg 61%
    02:00 +6°C° 0 mm 2 m/s 670 mmHg 62%
    03:00 +6°C° 0 mm 2 m/s 670 mmHg 64%
    04:00 +6°C° 0 mm 2 m/s 670 mmHg 62%
    05:00 +7°C° 0 mm 2 m/s 670 mmHg 61%
    06:00 +7°C° 0 mm 2 m/s 670 mmHg 59%
    07:00 +10°C° 0 mm 2 m/s 672 mmHg 50%
    08:00 +15°C° 0 mm 2 m/s 673 mmHg 41%
    09:00 +18°C° 0 mm 3 m/s 675 mmHg 32%
    10:00 +19°C° 0 mm 3 m/s 675 mmHg 31%
    11:00 +20°C° 0 mm 3 m/s 675 mmHg 30%
    12:00 +21°C° 0 mm 3 m/s 675 mmHg 29%
    13:00 +20°C° 0 mm 3 m/s 675 mmHg 31%
    14:00 +20°C° 0 mm 3 m/s 675 mmHg 33%
    15:00 +19°C° 0 mm 3 m/s 675 mmHg 35%
    16:00 +17°C° 0 mm 2 m/s 674 mmHg 46%
    17:00 +14°C° 0 mm 2 m/s 674 mmHg 57%
    18:00 +12°C° 0 mm 2 m/s 673 mmHg 68%
    19:00 +9°C° 0 mm 2 m/s 674 mmHg 75%
    20:00 +8°C° 0 mm 2 m/s 674 mmHg 82%
    21:00 +8°C° 0 mm 1 m/s 674 mmHg 89%
    22:00 +7°C° 0 mm 1 m/s 674 mmHg 90%
    23:00 +7°C° 0 mm 1 m/s 674 mmHg 91%

    Poimâine, 28 Martie, Marţi

    Timp Temperatura Precipitaţii Vânt Presiune Umiditate
    00:00 +6°C° 0 mm 1 m/s 674 mmHg 93%
    01:00 +6°C° 0 mm 1 m/s 674 mmHg 93%
    02:00 +5°C° 0 mm 1 m/s 673 mmHg 93%
    03:00 +5°C° 0 mm 1 m/s 673 mmHg 93%
    04:00 +5°C° 0 mm 1 m/s 673 mmHg 92%
    05:00 +5°C° 0 mm 1 m/s 673 mmHg 92%
    06:00 +6°C° 0 mm 1 m/s 674 mmHg 91%
    07:00 +8°C° 0 mm 1 m/s 675 mmHg 78%
    08:00 +11°C° 0 mm 1 m/s 676 mmHg 64%
    09:00 +14°C° 0 mm 2 m/s 677 mmHg 50%
    10:00 +15°C° 0 mm 2 m/s 677 mmHg 44%
    11:00 +16°C° 0 mm 2 m/s 677 mmHg 38%
    12:00 +18°C° 0 mm 3 m/s 677 mmHg 32%
    13:00 +17°C° 0 mm 3 m/s 676 mmHg 35%
    14:00 +17°C° 0 mm 3 m/s 676 mmHg 37%
    15:00 +17°C° 0 mm 4 m/s 676 mmHg 40%
    16:00 +14°C° 0 mm 3 m/s 676 mmHg 52%
    17:00 +12°C° 0 mm 3 m/s 675 mmHg 64%
    18:00 +10°C° 0 mm 3 m/s 675 mmHg 76%
    19:00 +8°C° 0 mm 2 m/s 675 mmHg 82%
    20:00 +7°C° 0 mm 2 m/s 676 mmHg 88%
    21:00 +7°C° 0 mm 1 m/s 676 mmHg 94%
    22:00 +7°C° 0 mm 1 m/s 676 mmHg 93%
    23:00 +7°C° 0 mm 1 m/s 676 mmHg 93%

    29 Martie, Miercuri

    Timp Temperatura Precipitaţii Vânt Presiune Umiditate
    00:00 +7°C° 0 mm 1 m/s 676 mmHg 93%
    01:00 +7°C° 0 mm 1 m/s 676 mmHg 93%
    02:00 +6°C° 0 mm 1 m/s 675 mmHg 94%
    03:00 +6°C° 0 mm 1 m/s 675 mmHg 94%
    04:00 +6°C° 0 mm 1 m/s 676 mmHg 93%
    05:00 +7°C° 0 mm 1 m/s 676 mmHg 93%
    06:00 +7°C° 0 mm 1 m/s 676 mmHg 92%
    07:00 +8°C° 0 mm 1 m/s 677 mmHg 82%
    08:00 +10°C° 0 mm 1 m/s 677 mmHg 73%
    09:00 +10°C° 0 mm 2 m/s 678 mmHg 63%
    10:00 +12°C° 0 mm 2 m/s 678 mmHg 55%
    11:00 +14°C° 0 mm 2 m/s 678 mmHg 47%
    12:00 +15°C° 0 mm 2 m/s 678 mmHg 39%
    13:00 +14°C° 0 mm 3 m/s 678 mmHg 38%
    14:00 +14°C° 0 mm 3 m/s 677 mmHg 37%
    15:00 +14°C° 0 mm 3 m/s 677 mmHg 36%
    16:00 +12°C° 0 mm 3 m/s 677 mmHg 47%
    17:00 +10°C° 0 mm 2 m/s 676 mmHg 58%
    18:00 +7°C° 0 mm 2 m/s 676 mmHg 68%
    19:00 +6°C° 0 mm 2 m/s 676 mmHg 75%
    20:00 +5°C° 0 mm 1 m/s 676 mmHg 81%
    21:00 +3°C° 0 mm 1 m/s 676 mmHg 88%
    22:00 +3°C° 0 mm 1 m/s 676 mmHg 88%
    23:00 +3°C° 0 mm 1 m/s 676 mmHg 88%

    30 Martie, Joi

    Timp Temperatura Precipitaţii Vânt Presiune Umiditate
    00:00 +2°C° 0 mm 1 m/s 675 mmHg 88%
    01:00 +2°C° 0 mm 1 m/s 675 mmHg 88%
    02:00 +2°C° 0 mm 1 m/s 675 mmHg 87%
    03:00 +1°C° 0 mm 1 m/s 675 mmHg 87%
    04:00 +2°C° 0 mm 1 m/s 675 mmHg 84%
    05:00 +2°C° 0 mm 1 m/s 675 mmHg 81%
    06:00 +2°C° 0 mm 1 m/s 675 mmHg 78%
    07:00 +6°C° 0 mm 1 m/s 677 mmHg 62%
    08:00 +10°C° 0 mm 1 m/s 678 mmHg 46%
    09:00 +15°C° 0 mm 1 m/s 679 mmHg 31%
    10:00 +16°C° 0 mm 2 m/s 679 mmHg 28%
    11:00 +18°C° 0 mm 2 m/s 679 mmHg 25%
    12:00 +19°C° 0 mm 2 m/s 679 mmHg 22%
    13:00 +19°C° 0 mm 2 m/s 679 mmHg 23%
    14:00 +19°C° 0 mm 2 m/s 679 mmHg 24%
    15:00 +19°C° 0 mm 2 m/s 678 mmHg 25%
    16:00 +16°C° 0 mm 2 m/s 677 mmHg 37%
    17:00 +13°C° 0 mm 2 m/s 677 mmHg 49%
    18:00 +10°C° 0 mm 1 m/s 676 mmHg 60%
    19:00 +9°C° 0 mm 1 m/s 676 mmHg 61%
    20:00 +8°C° 0 mm 1 m/s 676 mmHg 62%
    21:00 +7°C° 0 mm 2 m/s 676 mmHg 63%
    22:00 +7°C° 0 mm 2 m/s 676 mmHg 63%
    23:00 +7°C° 0 mm 2 m/s 676 mmHg 63%

    31 Martie, Vineri

    Timp Temperatura Precipitaţii Vânt Presiune Umiditate
    00:00 +7°C° 0 mm 2 m/s 676 mmHg 63%
    01:00 +6°C° 0 mm 2 m/s 675 mmHg 64%
    02:00 +6°C° 0 mm 2 m/s 675 mmHg 65%
    03:00 +6°C° 0 mm 2 m/s 675 mmHg 67%
    04:00 +6°C° 0 mm 2 m/s 675 mmHg 67%
    05:00 +6°C° 0 mm 2 m/s 675 mmHg 67%
    06:00 +5°C° 0 mm 3 m/s 675 mmHg 67%
    07:00 +10°C° 0 mm 3 m/s 676 mmHg 56%
    08:00 +13°C° 0 mm 3 m/s 676 mmHg 44%
    09:00 +18°C° 0 mm 4 m/s 677 mmHg 32%
    10:00 +19°C° 0 mm 4 m/s 677 mmHg 29%
    11:00 +21°C° 0 mm 4 m/s 677 mmHg 26%
    12:00 +22°C° 0 mm 4 m/s 677 mmHg 22%
    13:00 +22°C° 0 mm 4 m/s 677 mmHg 23%
    14:00 +22°C° 0 mm 4 m/s 676 mmHg 24%
    15:00 +22°C° 0 mm 3 m/s 676 mmHg 25%
    16:00 +19°C° 0 mm 3 m/s 675 mmHg 33%
    17:00 +16°C° 0 mm 2 m/s 674 mmHg 40%
    18:00 +14°C° 0 mm 2 m/s 674 mmHg 48%
    19:00 +12°C° 0 mm 1 m/s 674 mmHg 52%
    20:00 +11°C° 0 mm 1 m/s 673 mmHg 57%
    21:00 +10°C° 0 mm 1 m/s 673 mmHg 62%
    22:00 +9°C° 0 mm 1 m/s 673 mmHg 65%
    23:00 +8°C° 0 mm 1 m/s 672 mmHg 67%
    Arată mai mult